Location: Capelle
(50.3413°N, 1.9974°E)
Time: 23:30:36
(UTC+00:00)

Cosmos 332 Rocket - Pass Details

Date: 12 January 2026
Orbit: 672 x 693 km, 74.0° (Epoch: 9 February)

Event Time Altitude Azimuth Distance (km) Brightness Sun altitude
Rises 17:14:54 0° 340° (NNW) 3,039 7.1 -9.5°
Reaches altitude 10° 17:17:24 10° 350° (N) 2,123 6.2 -9.9°
Maximum altitude 17:21:44 34° 56° (NE) 1,122 4.4 -10.6°
Drops below altitude 10° 17:26:05 10° 121° (ESE) 2,121 5.9 -11.2°
Sets 17:28:34 0° 131° (SE) 3,036 6.8 -11.6°
